Regional Weather Roundup
Issued by NWS Little Rock, AR

Home | Current Version | Previous Version | Text Only | Print | Product List | Glossary Off
Versions: 1 2 3 4 5 6 7 8 9 10 11 12 13 14 15 16 17 18 19 20 21 22 23 24 25 26 27 28 29 30 31 32 33 34 35 36 37 38 39 40 41 42 43 44 45 46 47 48 49 50

782
ASUS44 KLZK 231305
RWRLZK

WEATHER ROUNDUP FOR ARKANSAS
NATIONAL WEATHER SERVICE LITTLE ROCK AR
800 AM CDT FRI JUN 23 2017

NOTE: "FAIR" INDICATES FEW OR NO CLOUDS BELOW 12,000 FEET WITH NO
SIGNIFICANT WEATHER AND/OR OBSTRUCTIONS TO VISIBILITY.

ARZ001-003-010-029-231400-
NORTHWEST ARKANSAS

CITY           SKY/WX    TMP DP  RH WIND       PRES   REMARKS
FAYETTEVILLE   SUNNY     71  70  96 SE3       29.78R
FORT SMITH     FOG       75  75 100 CALM      29.74R VSB 1/2
HARRISON       FOG       71  71 100 NW7       29.78R VSB 1
BENTONVILLE    SUNNY     75  70  83 CALM      29.79R
ROGERS         MOSUNNY   74  71  91 CALM      29.79R
SILOAM SPGS    SUNNY     73  72  94 W3        29.78R
HIGHFILL       SUNNY     76  73  91 W7        29.78R
$$

ARZ004-005-016-231400-
NORTH CENTRAL ARKANSAS

CITY           SKY/WX    TMP DP  RH WIND       PRES   REMARKS
BATESVILLE     CLOUDY    75  73  94 W5        29.67R
FLIPPIN        CLOUDY    75  70  83 NW6       29.70R
MTN HOME       CLOUDY    75  74  96 VRB3      29.72R
$$

ARZ040-041-231400-
WEST CENTRAL ARKANSAS

CITY           SKY/WX    TMP DP  RH WIND       PRES   REMARKS
MENA           MOSUNNY   79  77  94 W7        29.80R
MOUNT IDA      MOSUNNY   77  72  84 CALM      29.75R
$$

ARZ009-017-025-026-028-231400-
NORTHEAST ARKANSAS

CITY           SKY/WX    TMP DP  RH WIND       PRES   REMARKS
CORNING        RAIN      73  73 100 NE13      29.67F
JONESBORO      CLOUDY    75  75 100 NE7       29.61F
WALNUT RIDGE   CLOUDY    75  72  88 N9        29.65R
BLYTHEVILLE    RAIN      75  74  96 SE15G23   29.64F
$$

ARZ022-023-033-042-044-231400-
CENTRAL ARKANSAS

CITY           SKY/WX    TMP DP  RH WIND       PRES   REMARKS
LITTLE ROCK    CLOUDY    76  76 100 SW14      29.72R
N LITTLE ROCK    N/A     75  74  96 W5        29.72R
JACKSONVILLE   PTSUNNY   77  77 100 SW10      29.70R
CONWAY           N/A     77  75  94 W8        29.70R
SEARCY         CLOUDY    75  75 100 MISG      29.69R FOG
HOT SPRINGS    PTSUNNY   76  75  97 SW3       29.76R
RUSSELLVILLE   CLOUDY    77  74  90 W7        29.73R
CLINTON        CLOUDY    77  75  94 W3        29.70R
$$

ARZ036-231400-
EAST ARKANSAS

CITY           SKY/WX    TMP DP  RH WIND       PRES   REMARKS
WEST MEMPHIS   RAIN      75  32  20 S17G33    29.62R
$$

ARZ050-053-066-070-073-231400-
SOUTHWEST ARKANSAS

CITY           SKY/WX    TMP DP  RH WIND       PRES   REMARKS
ARKADELPHIA    CLOUDY    77  76  96 MISG      29.77R
CAMDEN         CLOUDY    77  73  88 S6        29.77R
TEXARKANA      MOSUNNY   80  76  87 SW13      29.79R HX  86
EL DORADO      HVY RAIN  74  73  97 SE7       29.80R FOG
DE QUEEN       CLOUDY    76  76 100 CALM      29.75R
$$

ARZ056-057-069-231400-
SOUTHEAST ARKANSAS

CITY           SKY/WX    TMP DP  RH WIND       PRES   REMARKS
PINE BLUFF     CLOUDY    77  75  93 SW13      29.74R
STUTTGART      CLOUDY    75  64  69 SW15      29.71R
MONTICELLO     LGT RAIN  74  71  91 SW14G21   29.78R

$$






USA.gov is the U.S. government's official web portal to all federal, state and local government web resources and services.